EZS49KR LSGG-LFKB

Flight info

Callsign EZS49KR
Flight time 0h 54m
Altitude 23000
Route MEDAM DCT NITAM DCT MOGBO DCT LAGEN DCT ANAKI DCT OLETI/N0343F190 M858 LIGUR
Aircraft A320/M-SDE2E3FGHIJ1RWXYZ/LB1

Departure

Time 2026-05-07 10:14
Airport Geneva International Airport (LSGG)

Arrival

Time 2026-05-07 11:09
Airport Bastia-Poretta International airport (LFKB)
Time Latitude Longitude Altitude Speed Heading
2026-05-07 09:49 46.23004 6.10534 1386 ft 0 kts 134°
2026-05-07 09:50 46.23006 6.10532 1387 ft 0 kts 135°
2026-05-07 10:06 46.23016 6.10517 1386 ft 4 kts 135°
2026-05-07 10:06 46.23031 6.10495 1388 ft 4 kts 150°
2026-05-07 10:06 46.23051 6.10495 1390 ft 4 kts 215°
2026-05-07 10:07 46.23070 6.10519 1385 ft 4 kts 225°
2026-05-07 10:07 46.23077 6.10529 1387 ft 0 kts 225°
2026-05-07 10:09 46.23063 6.10508 1386 ft 7 kts 226°
2026-05-07 10:09 46.23006 6.10425 1389 ft 15 kts 225°
2026-05-07 10:10 46.22951 6.10334 1389 ft 9 kts 250°
2026-05-07 10:10 46.22976 6.10273 1385 ft 7 kts 315°
2026-05-07 10:10 46.23018 6.10214 1387 ft 10 kts 316°
2026-05-07 10:10 46.23055 6.10149 1387 ft 7 kts 283°
2026-05-07 10:11 46.23029 6.10087 1389 ft 10 kts 225°
2026-05-07 10:11 46.22964 6.09992 1388 ft 17 kts 225°
2026-05-07 10:11 46.22865 6.09847 1389 ft 23 kts 224°
2026-05-07 10:11 46.22752 6.09681 1390 ft 24 kts 225°
2026-05-07 10:12 46.22634 6.09508 1387 ft 25 kts 225°
2026-05-07 10:12 46.22556 6.09349 1388 ft 15 kts 254°
2026-05-07 10:12 46.22554 6.09209 1390 ft 12 kts 287°
2026-05-07 10:12 46.22610 6.09156 1398 ft 9 kts
2026-05-07 10:13 46.22646 6.09196 1396 ft 4 kts 45°
2026-05-07 10:13 46.22650 6.09201 1401 ft 0 kts 45°
2026-05-07 10:13 46.22667 6.09225 1398 ft 12 kts 45°
2026-05-07 10:13 46.22902 6.09573 1387 ft 84 kts 45°
2026-05-07 10:14 46.23457 6.10385 1396 ft 140 kts 45°
2026-05-07 10:14 46.24249 6.11554 1450 ft 179 kts 46°
2026-05-07 10:14 46.25122 6.12878 1986 ft 186 kts 46°
2026-05-07 10:14 46.26038 6.14268 2532 ft 198 kts 46°
2026-05-07 10:15 46.27048 6.15759 2825 ft 219 kts 45°
2026-05-07 10:15 46.28167 6.17388 3185 ft 239 kts 45°
2026-05-07 10:15 46.29400 6.19178 3608 ft 261 kts 45°
2026-05-07 10:15 46.30703 6.21076 4409 ft 268 kts 45°
2026-05-07 10:16 46.32010 6.22984 5280 ft 273 kts 45°
2026-05-07 10:16 46.33354 6.24950 6156 ft 277 kts 45°
2026-05-07 10:16 46.34708 6.26941 7014 ft 280 kts 45°
2026-05-07 10:16 46.35892 6.29179 7799 ft 284 kts 68°
2026-05-07 10:17 46.36150 6.31983 8595 ft 286 kts 101°
2026-05-07 10:17 46.35319 6.34570 9417 ft 287 kts 134°
2026-05-07 10:17 46.33660 6.36113 10187 ft 288 kts 166°
2026-05-07 10:17 46.31681 6.36148 10868 ft 291 kts 194°
2026-05-07 10:18 46.29669 6.35282 11117 ft 313 kts 200°
2026-05-07 10:18 46.27561 6.34206 11558 ft 327 kts 201°
2026-05-07 10:18 46.25391 6.33112 12261 ft 332 kts 200°
2026-05-07 10:18 46.23179 6.32082 13010 ft 336 kts 199°
2026-05-07 10:19 46.20924 6.31143 13755 ft 340 kts 195°
2026-05-07 10:19 46.18556 6.30715 14386 ft 346 kts 184°
2026-05-07 10:19 46.16139 6.30595 15012 ft 350 kts 184°
2026-05-07 10:19 46.13694 6.30470 15641 ft 353 kts 184°
2026-05-07 10:20 46.11228 6.30339 16259 ft 356 kts 184°
2026-05-07 10:20 46.08736 6.30202 16875 ft 360 kts 184°
2026-05-07 10:20 46.06226 6.30056 17479 ft 363 kts 184°
2026-05-07 10:20 46.03684 6.29903 18097 ft 367 kts 184°
2026-05-07 10:21 46.01122 6.29747 18651 ft 370 kts 184°
2026-05-07 10:21 45.98574 6.29591 19179 ft 373 kts 185°
2026-05-07 10:21 45.95967 6.29431 19734 ft 376 kts 185°
2026-05-07 10:21 45.93345 6.29284 20244 ft 379 kts 182°
2026-05-07 10:22 45.90702 6.29614 20761 ft 385 kts 171°
2026-05-07 10:22 45.88113 6.30710 21258 ft 391 kts 159°
2026-05-07 10:22 45.85690 6.32555 21719 ft 398 kts 148°
2026-05-07 10:22 45.83447 6.34922 22203 ft 402 kts 145°
2026-05-07 10:23 45.81197 6.37325 22706 ft 405 kts 145°
2026-05-07 10:23 45.78926 6.39742 22968 ft 407 kts 145°
2026-05-07 10:23 45.76684 6.42121 23014 ft 394 kts 146°
2026-05-07 10:23 45.74495 6.44436 23016 ft 389 kts 146°
2026-05-07 10:24 45.72325 6.46726 23016 ft 387 kts 146°
2026-05-07 10:24 45.70154 6.49012 23012 ft 387 kts 146°
2026-05-07 10:24 45.67984 6.51296 23013 ft 387 kts 146°
2026-05-07 10:24 45.65815 6.53577 23012 ft 387 kts 146°
2026-05-07 10:25 45.63649 6.55858 23012 ft 387 kts 146°
2026-05-07 10:25 45.61485 6.58142 23024 ft 387 kts 146°
2026-05-07 10:25 45.59323 6.60421 23023 ft 387 kts 146°
2026-05-07 10:25 45.57155 6.62701 23008 ft 387 kts 146°
2026-05-07 10:26 45.54988 6.64977 23004 ft 386 kts 146°
2026-05-07 10:26 45.52818 6.67252 23004 ft 387 kts 146°
2026-05-07 10:26 45.50646 6.69528 23002 ft 387 kts 146°
2026-05-07 10:26 45.48477 6.71798 23013 ft 388 kts 146°
2026-05-07 10:27 45.46330 6.74044 23012 ft 387 kts 146°
2026-05-07 10:27 45.44151 6.76303 23013 ft 387 kts 147°
2026-05-07 10:27 45.41929 6.78555 23012 ft 387 kts 147°
2026-05-07 10:27 45.39754 6.80729 23010 ft 388 kts 147°
2026-05-07 10:28 45.37545 6.82923 23011 ft 387 kts 147°
2026-05-07 10:28 45.35334 6.85117 23015 ft 388 kts 147°
2026-05-07 10:28 45.33127 6.87316 23014 ft 388 kts 147°
2026-05-07 10:28 45.30917 6.89521 23013 ft 388 kts 147°
2026-05-07 10:29 45.28710 6.91723 23014 ft 388 kts 147°
2026-05-07 10:29 45.26524 6.93974 23016 ft 389 kts 142°
2026-05-07 10:29 45.24546 6.96604 23005 ft 390 kts 137°
2026-05-07 10:30 45.20661 7.01994 23000 ft 391 kts 137°
2026-05-07 10:30 45.18709 7.04679 23000 ft 391 kts 138°
2026-05-07 10:30 45.16754 7.07355 22998 ft 391 kts 138°
2026-05-07 10:30 45.14798 7.10023 22984 ft 390 kts 138°
2026-05-07 10:31 45.12847 7.12692 22991 ft 390 kts 138°
2026-05-07 10:31 45.10921 7.15404 22991 ft 391 kts 133°
2026-05-07 10:31 45.09266 7.18458 22990 ft 392 kts 126°
2026-05-07 10:31 45.07707 7.21621 22991 ft 392 kts 126°
2026-05-07 10:32 45.06140 7.24788 22987 ft 392 kts 127°
2026-05-07 10:32 45.04577 7.27939 22986 ft 392 kts 127°
2026-05-07 10:32 45.03006 7.31099 22987 ft 393 kts 127°
2026-05-07 10:32 45.01431 7.34260 22991 ft 393 kts 127°
2026-05-07 10:33 44.99858 7.37416 22998 ft 393 kts 127°
2026-05-07 10:33 44.98280 7.40577 23013 ft 393 kts 127°
2026-05-07 10:33 44.96684 7.43711 23010 ft 393 kts 128°
2026-05-07 10:33 44.95080 7.46771 23008 ft 393 kts 128°
2026-05-07 10:34 44.93438 7.49846 22990 ft 393 kts 129°
2026-05-07 10:34 44.91781 7.52925 22995 ft 393 kts 129°
2026-05-07 10:34 44.90125 7.56000 23004 ft 394 kts 129°
2026-05-07 10:34 44.88473 7.59075 23000 ft 394 kts 129°
2026-05-07 10:35 44.86823 7.62158 23003 ft 394 kts 128°
2026-05-07 10:35 44.85177 7.65244 23009 ft 394 kts 128°
2026-05-07 10:35 44.83537 7.68325 23023 ft 393 kts 128°
2026-05-07 10:35 44.81892 7.71410 23022 ft 393 kts 128°
2026-05-07 10:36 44.80248 7.74487 23018 ft 393 kts 128°
2026-05-07 10:36 44.78601 7.77561 23022 ft 393 kts 128°
2026-05-07 10:36 44.77508 7.79598 23030 ft 393 kts 128°
2026-05-07 10:36 44.75865 7.82659 23011 ft 393 kts 128°
2026-05-07 10:37 44.74219 7.85724 23014 ft 393 kts 128°
2026-05-07 10:37 44.72571 7.88788 23007 ft 392 kts 128°
2026-05-07 10:37 44.70923 7.91852 22973 ft 393 kts 129°
2026-05-07 10:37 44.69271 7.94918 22973 ft 394 kts 129°
2026-05-07 10:38 44.67616 7.97994 22978 ft 395 kts 129°
2026-05-07 10:38 44.65959 8.01068 22979 ft 396 kts 129°
2026-05-07 10:38 44.64292 8.04151 22977 ft 396 kts 129°
2026-05-07 10:38 44.62624 8.07230 22996 ft 396 kts 129°
2026-05-07 10:39 44.60953 8.10314 22984 ft 397 kts 129°
2026-05-07 10:39 44.59282 8.13397 22977 ft 396 kts 129°
2026-05-07 10:39 44.57614 8.16477 22977 ft 396 kts 129°
2026-05-07 10:39 44.55944 8.19556 22987 ft 397 kts 129°
2026-05-07 10:40 44.54274 8.22629 22991 ft 397 kts 129°
2026-05-07 10:40 44.52595 8.25714 22991 ft 397 kts 129°
2026-05-07 10:40 44.50921 8.28785 22994 ft 397 kts 129°
2026-05-07 10:40 44.49239 8.31861 23004 ft 397 kts 129°
2026-05-07 10:41 44.47560 8.34929 23008 ft 397 kts 129°
2026-05-07 10:41 44.45900 8.37964 23013 ft 397 kts 129°
2026-05-07 10:41 44.44224 8.41030 23016 ft 397 kts 129°
2026-05-07 10:41 44.42546 8.44092 23029 ft 396 kts 130°
2026-05-07 10:42 44.40869 8.47148 23024 ft 396 kts 129°
2026-05-07 10:42 44.39099 8.50078 23019 ft 394 kts 138°
2026-05-07 10:42 44.37054 8.52600 23017 ft 392 kts 143°
2026-05-07 10:42 44.34967 8.55053 23020 ft 392 kts 143°
2026-05-07 10:43 44.32884 8.57506 23014 ft 392 kts 143°
2026-05-07 10:43 44.30805 8.59963 23022 ft 392 kts 142°
2026-05-07 10:43 44.28727 8.62420 22983 ft 392 kts 143°
2026-05-07 10:43 44.26646 8.64876 22975 ft 392 kts 144°
2026-05-07 10:44 44.24558 8.67331 22989 ft 393 kts 144°
2026-05-07 10:44 44.22466 8.69789 22976 ft 394 kts 144°
2026-05-07 10:44 44.20334 8.72182 22974 ft 391 kts 150°
2026-05-07 10:44 44.18011 8.74092 22988 ft 386 kts 158°
2026-05-07 10:45 44.15625 8.75818 22985 ft 387 kts 158°
2026-05-07 10:45 44.13235 8.77552 22980 ft 387 kts 158°
2026-05-07 10:45 44.10851 8.79284 22991 ft 387 kts 158°
2026-05-07 10:45 44.08461 8.81021 22993 ft 387 kts 158°
2026-05-07 10:46 44.06077 8.82754 22974 ft 387 kts 158°
2026-05-07 10:46 44.03691 8.84487 22981 ft 386 kts 158°
2026-05-07 10:46 44.01313 8.86212 22992 ft 386 kts 158°
2026-05-07 10:46 43.98933 8.87935 22999 ft 386 kts 158°
2026-05-07 10:47 43.96554 8.89654 22999 ft 385 kts 158°
2026-05-07 10:47 43.94174 8.91373 23001 ft 385 kts 158°
2026-05-07 10:47 43.91796 8.93091 23003 ft 385 kts 158°
2026-05-07 10:47 43.89419 8.94803 23006 ft 385 kts 158°
2026-05-07 10:48 43.87039 8.96515 22983 ft 385 kts 158°
2026-05-07 10:48 43.84622 8.98248 23007 ft 397 kts 158°
2026-05-07 10:48 43.82131 8.99777 23006 ft 395 kts 168°
2026-05-07 10:48 43.79461 9.00503 23007 ft 387 kts 182°
2026-05-07 10:49 43.76839 9.00419 22799 ft 369 kts 189°
2026-05-07 10:49 43.74322 9.00143 21982 ft 362 kts 190°
2026-05-07 10:49 43.71820 8.99843 21123 ft 357 kts 190°
2026-05-07 10:49 43.69357 8.99534 20270 ft 354 kts 190°
2026-05-07 10:50 43.66909 8.99225 19462 ft 351 kts 189°
2026-05-07 10:50 43.64486 8.98930 18731 ft 348 kts 189°
2026-05-07 10:50 43.62069 8.98642 18278 ft 348 kts 188°
2026-05-07 10:50 43.59663 8.98362 17813 ft 346 kts 188°
2026-05-07 10:51 43.57275 8.98088 17398 ft 342 kts 188°
2026-05-07 10:51 43.54911 8.97819 16986 ft 339 kts 188°
2026-05-07 10:51 43.52570 8.97546 16551 ft 338 kts 188°
2026-05-07 10:51 43.50235 8.97259 16119 ft 336 kts 188°
2026-05-07 10:52 43.47907 8.96968 15691 ft 335 kts 188°
2026-05-07 10:52 43.45592 8.96678 15263 ft 334 kts 188°
2026-05-07 10:52 43.43283 8.96392 14841 ft 333 kts 188°
2026-05-07 10:52 43.40977 8.96107 14438 ft 331 kts 188°
2026-05-07 10:53 43.38717 8.95826 14030 ft 331 kts 188°
2026-05-07 10:53 43.36410 8.95549 13725 ft 326 kts 188°
2026-05-07 10:53 43.34198 8.95300 13454 ft 320 kts 187°
2026-05-07 10:53 43.31995 8.95059 13194 ft 314 kts 187°
2026-05-07 10:54 43.29834 8.94822 12943 ft 308 kts 187°
2026-05-07 10:54 43.27715 8.94587 12687 ft 303 kts 187°
2026-05-07 10:54 43.25626 8.94458 12450 ft 301 kts 178°
2026-05-07 10:54 43.23592 8.95123 12209 ft 303 kts 159°
2026-05-07 10:55 43.21810 8.96688 11968 ft 307 kts 139°
2026-05-07 10:55 43.20484 8.98980 11715 ft 309 kts 123°
2026-05-07 10:55 43.19369 9.01492 11470 ft 307 kts 123°
2026-05-07 10:55 43.18257 9.03993 11223 ft 307 kts 124°
2026-05-07 10:56 43.17148 9.06482 10969 ft 306 kts 124°
2026-05-07 10:56 43.16037 9.08965 10719 ft 305 kts 123°
2026-05-07 10:56 43.14940 9.11419 10491 ft 301 kts 123°
2026-05-07 10:56 43.13845 9.13859 10256 ft 300 kts 123°
2026-05-07 10:57 43.12753 9.16285 10011 ft 298 kts 123°
2026-05-07 10:57 43.11674 9.18683 9763 ft 295 kts 123°
2026-05-07 10:57 43.10599 9.21070 9522 ft 294 kts 123°
2026-05-07 10:57 43.09525 9.23454 9284 ft 294 kts 124°
2026-05-07 10:58 43.08455 9.25828 9048 ft 293 kts 123°
2026-05-07 10:58 43.07399 9.28169 8817 ft 292 kts 123°
2026-05-07 10:58 43.06333 9.30530 8581 ft 291 kts 123°
2026-05-07 10:58 43.05271 9.32883 8347 ft 291 kts 123°
2026-05-07 10:59 43.04213 9.35227 8113 ft 289 kts 123°
2026-05-07 10:59 43.03160 9.37560 7881 ft 288 kts 123°
2026-05-07 10:59 43.02107 9.39885 7636 ft 287 kts 123°
2026-05-07 10:59 43.01053 9.42204 7407 ft 286 kts 123°
2026-05-07 11:00 43.00004 9.44511 7165 ft 285 kts 123°
2026-05-07 11:00 42.98957 9.46812 6944 ft 284 kts 122°
2026-05-07 11:00 42.97916 9.49103 6715 ft 283 kts 122°
2026-05-07 11:00 42.96876 9.51387 6485 ft 283 kts 122°
2026-05-07 11:01 42.95839 9.53665 6251 ft 282 kts 122°
2026-05-07 11:01 42.94822 9.55898 6089 ft 271 kts 123°
2026-05-07 11:01 42.93791 9.57975 5955 ft 258 kts 135°
2026-05-07 11:01 42.92357 9.59307 5763 ft 245 kts 163°
2026-05-07 11:02 42.90735 9.59580 5679 ft 238 kts 189°
2026-05-07 11:02 42.89129 9.59069 5516 ft 237 kts 197°
2026-05-07 11:02 42.87532 9.58480 5334 ft 237 kts 197°
2026-05-07 11:02 42.85944 9.57896 5146 ft 236 kts 197°
2026-05-07 11:03 42.84387 9.57226 4956 ft 233 kts 207°
2026-05-07 11:03 42.82935 9.56254 4653 ft 232 kts 208°
2026-05-07 11:03 42.81490 9.55279 4359 ft 232 kts 207°
2026-05-07 11:03 42.80047 9.54306 4096 ft 231 kts 208°
2026-05-07 11:04 42.78611 9.53339 3819 ft 230 kts 207°
2026-05-07 11:04 42.77177 9.52373 3545 ft 230 kts 206°
2026-05-07 11:04 42.75745 9.51411 3270 ft 228 kts 206°
2026-05-07 11:04 42.74330 9.50463 2996 ft 225 kts 206°
2026-05-07 11:05 42.72937 9.49528 2787 ft 219 kts 206°
2026-05-07 11:05 42.71602 9.48631 2732 ft 209 kts 206°
2026-05-07 11:05 42.70317 9.47771 2622 ft 202 kts 206°
2026-05-07 11:05 42.69093 9.46959 2564 ft 188 kts 202°
2026-05-07 11:06 42.67878 9.46565 2480 ft 174 kts 183°
2026-05-07 11:06 42.66660 9.46621 2172 ft 175 kts 176°
2026-05-07 11:06 42.65454 9.46698 1906 ft 170 kts 177°
2026-05-07 11:06 42.64305 9.46760 1679 ft 161 kts 178°
2026-05-07 11:07 42.63239 9.46720 1486 ft 149 kts 182°
2026-05-07 11:07 42.62223 9.46575 1247 ft 145 kts 186°
2026-05-07 11:07 42.61243 9.46363 1022 ft 143 kts 183°
2026-05-07 11:07 42.60261 9.46274 829 ft 139 kts 174°
2026-05-07 11:08 42.59330 9.46500 677 ft 135 kts 157°
2026-05-07 11:08 42.58451 9.46959 489 ft 136 kts 156°
2026-05-07 11:08 42.57563 9.47387 330 ft 134 kts 158°
2026-05-07 11:08 42.56675 9.47777 144 ft 135 kts 159°
2026-05-07 11:09 42.55792 9.48149 30 ft 124 kts 160°
2026-05-07 11:09 42.55208 9.48397 36 ft 45 kts 162°
2026-05-07 11:09 42.55046 9.48466 37 ft 11 kts 168°
2026-05-07 11:09 42.54986 9.48435 34 ft 9 kts 244°
2026-05-07 11:10 42.54975 9.48376 35 ft 5 kts 253°
2026-05-07 11:10 42.54966 9.48333 34 ft 4 kts 253°
2026-05-07 11:10 42.54958 9.48297 35 ft 3 kts 253°
2026-05-07 11:10 42.54950 9.48272 34 ft 2 kts 242°
2026-05-07 11:11 42.54927 9.48246 35 ft 7 kts 202°
2026-05-07 11:11 42.54864 9.48264 35 ft 12 kts 163°
2026-05-07 11:11 42.54784 9.48298 35 ft 8 kts 162°
2026-05-07 11:11 42.54745 9.48290 33 ft 5 kts 239°
2026-05-07 11:12 42.54739 9.48256 35 ft 4 kts 254°
2026-05-07 11:12 42.54730 9.48217 35 ft 3 kts 253°
2026-05-07 11:12 42.54728 9.48205 35 ft 0 kts 253°